Flag for West Bank Weather past 2 weeks in Hebron, West Bank

Now
79 °F

Passing clouds.


Feels Like: 79 °F
Forecast: 58 / 73 °F
Wind: 5 mph from North

Location: Ben Gurion International Airport

Current Time: Oct 21, 2014 at 1:38:34 PM

Latest Report: Oct 21, 2014 at 1:20 PM


Visibility: N/A

Pressure: 29.98 "Hg

Humidity: 39%

Dew point: 52 °F

Location of HebronLocation

Historic Weather in Hebron — Graph

°F

Hebron temperature yesterday

Maximum temperature yesterday: 77 °F (at 11:50 AM)
Minimum temperature yesterday: 63 °F (at 4:50 AM)
Average temperature yesterday: 70 °F

Past Weeks' High & Low Weather Summary

 TemperatureHumidityPressure
High90 °F (Oct 8, 12:20 PM)89% (Oct 10, 11:20 PM)30.12 "Hg (Oct 10, 11:20 PM)
Low61 °F (Oct 21, 3:20 AM)31% (Oct 8, 12:20 PM)29.74 "Hg (Oct 19, 1:50 PM)
Average74 °F68%29.96 "Hg
* Reported Oct 6 12:20 PM — Oct 21 12:20 PM, Hebron, Weather by CustomWeather, © 2014

Note: Actual official high and low records may vary slightly from our data, if they occured in-between our weather recording intervals... More about our weather records

Advertising

Hebron weather history for previous 24 hours

 ConditionsComfort  
Time TempWeatherWind HumidityBarometerVisibility
12:20 PM
Oct 21
79 °FPassing clouds.3 mph39%30.01 "HgN/A
11:50 AM77 °FScattered clouds.5 mph42%30.01 "HgN/A
11:20 AM79 °FScattered clouds.1 mph39%30.01 "HgN/A
10:50 AM77 °FPassing clouds.2 mph42%30.01 "HgN/A
10:20 AM75 °FPassing clouds.3 mph47%30.01 "HgN/A
9:50 AM73 °FPassing clouds.5 mph50%30.01 "HgN/A
9:20 AM70 °FSunny.3 mph53%30.01 "Hg10 mi
8:50 AM68 °FSunny.2 mph56%30.01 "Hg10 mi
8:20 AM64 °FSunny.3 mph64%30.01 "Hg10 mi
7:50 AM63 °FSunny.5 mph64%30.01 "Hg10 mi
7:20 AM63 °FPassing clouds.5 mph64%29.98 "HgN/A
6:50 AM61 °FSunny.3 mph68%29.98 "Hg10 mi
6:20 AM61 °FClear.3 mph68%29.98 "Hg10 mi
5:50 AM63 °FClear.5 mph64%29.98 "Hg10 mi
5:20 AM63 °FClear.6 mph64%29.98 "Hg10 mi
4:50 AM63 °FClear.5 mph64%29.98 "Hg10 mi
4:20 AM61 °FClear.3 mph68%29.98 "Hg10 mi
3:50 AM63 °FClear.3 mph64%29.95 "Hg10 mi
3:20 AM61 °FClear.3 mph68%29.95 "Hg10 mi
2:50 AM63 °FClear.5 mph64%29.95 "Hg10 mi
2:20 AM63 °FClear.3 mph64%29.95 "Hg10 mi
1:50 AM63 °FClear.5 mph64%29.95 "Hg10 mi
1:20 AM64 °FClear.6 mph60%29.95 "Hg10 mi
12:50 AM64 °FClear.2 mph60%29.95 "Hg10 mi
12:20 AM64 °FClear.3 mph60%29.95 "Hg10 mi
11:50 PM
Oct 20
64 °FClear.5 mph64%29.98 "Hg10 mi
11:20 PM66 °FClear.5 mph60%29.98 "Hg10 mi
10:50 PM66 °FClear.3 mph60%29.98 "Hg10 mi
10:20 PM66 °FClear.5 mph60%29.98 "Hg10 mi
9:50 PM66 °FClear.6 mph64%29.95 "Hg10 mi
9:20 PM66 °FClear.5 mph64%29.95 "Hg10 mi
8:50 PM68 °FClear.5 mph56%29.95 "Hg10 mi
8:20 PM70 °FPassing clouds.5 mph53%29.95 "HgN/A
7:50 PM70 °FClear.7 mph53%29.92 "Hg10 mi
7:20 PM70 °FClear.7 mph53%29.92 "Hg10 mi
6:50 PM72 °FClear.8 mph53%29.92 "Hg10 mi
6:20 PM72 °FClear.10 mph53%29.89 "Hg10 mi
5:50 PM72 °FPassing clouds.10 mph53%29.89 "HgN/A
5:20 PM73 °FPassing clouds.12 mph50%29.89 "HgN/A
4:50 PM75 °FScattered clouds.15 mph47%29.89 "HgN/A
4:20 PM73 °FScattered clouds.13 mph50%29.89 "HgN/A
3:50 PM75 °FScattered clouds.15 mph47%29.89 "HgN/A
3:20 PM75 °FScattered clouds.14 mph47%29.89 "HgN/A
2:50 PM77 °FScattered clouds.16 mph44%29.86 "HgN/A
2:20 PM77 °FScattered clouds.17 mph44%29.86 "HgN/A
1:50 PM77 °FScattered clouds.14 mph44%29.86 "HgN/A
1:20 PM77 °FScattered clouds.13 mph44%29.86 "HgN/A
Weather by CustomWeather, © 2014

See weather overviewHow to use our weather pages